This demonstration page uses our WeatherBlox Daily Observations layout. Learn more.

38.89511, -77.03637

Hourly Observations for September 5, 2015

Temp ( °F °C ) Dew Point ( °F °C ) Humidity (%) Winds ( mph kmh ) Pressure ( in mb ) Visibility ( mi km ) Precip ( " mm )
12:52 am 00:52 Mostly Cloudy 75 24 70 21 83 83 E 7 11 30.15 1021 10 16.09344 0 0
1:52 am 01:52 Mostly Cloudy 75 24 70 21 83 83 E 7 11 30.15 1021 10 16.09344 0 0
2:35 am 02:35 Mostly Cloudy 75 24 70 21 83 83 ENE 7 11 30.15 1021 10 16.09344 0 0
2:52 am 02:52 Mostly Cloudy 75 24 70 21 83 83 ENE 8 13 30.15 1021 10 16.09344 0 0
2:59 am 02:59 Partly Cloudy 75 24 70 21 83 83 ENE 8 13 30.15 1021 10 16.09344 0 0
3:52 am 03:52 Cloudy 75 24 70 21 83 83 NE 9 15 30.15 1021 10 16.09344 0 0
4:52 am 04:52 Cloudy 75 24 70 21 83 83 NE 8 13 30.18 1022 10 16.09344 0 0
5:23 am 05:23 Cloudy 73 23 70 21 89 89 NE 9 15 30.18 1022 10 16.09344 0 0
5:52 am 05:52 Cloudy 73 23 70 21 89 89 NE 9 15 30.18 1022 10 16.09344 0 0
6:52 am 06:52 Cloudy 73 23 70 21 89 89 ENE 10 17 30.21 1023 10 16.09344 0 0
7:00 am 07:00 Cloudy 73 23 70 21 89 89 ENE 13 20 30.21 1023 10 16.09344 0 0
7:52 am 07:52 Cloudy 73 23 68 20 83 83 ENE 10 17 30.21 1023 10 16.09344 0 0
8:52 am 08:52 Cloudy 75 24 68 20 78 78 ENE 9 15 30.24 1024 10 16.09344 0 0
9:52 am 09:52 Mostly Cloudy 77 25 66 19 69 69 NE 9 15 30.24 1024 10 16.09344 0 0
10:10 am 10:10 Mostly Cloudy 79 26 66 19 65 65 NE 8 13 30.24 1024 10 16.09344 0 0
10:17 am 10:17 Mostly Cloudy 79 26 66 19 65 65 ENE 8 13 30.24 1024 10 16.09344 0 0
10:52 am 10:52 Mostly Cloudy 81 27 66 19 62 62 NE 9 15 30.24 1024 10 16.09344 0 0
11:52 am 11:52 Mostly Cloudy 81 27 64 18 58 58 NNE 8 13 30.24 1024 10 16.09344 0 0
12:52 pm 12:52 Mostly Cloudy 82 28 64 18 55 55 ENE 8 13 30.24 1024 10 16.09344 0 0
1:52 pm 13:52 Partly Cloudy 84 29 64 18 51 51 ESE 7 11 30.21 1023 10 16.09344 0 0
2:52 pm 14:52 Partly Cloudy 84 29 66 19 55 55 E 9 15 30.21 1023 10 16.09344 0 0
3:52 pm 15:52 Mostly Cloudy 84 29 64 18 51 51 ESE 6 9 30.18 1022 10 16.09344 0 0
4:52 pm 16:52 Partly Cloudy 84 29 64 18 51 51 ESE 7 11 30.18 1022 10 16.09344 0 0
5:52 pm 17:52 Mostly Cloudy 84 29 63 17 48 48 E 7 11 30.18 1022 10 16.09344 0 0
6:52 pm 18:52 Mostly Cloudy 82 28 64 18 55 55 E 7 11 30.15 1021 10 16.09344 0 0
7:52 pm 19:52 Mostly Cloudy 81 27 64 18 58 58 ESE 6 9 30.15 1021 10 16.09344 0 0
8:52 pm 20:52 Partly Cloudy 79 26 66 19 65 65 SE 7 11 30.18 1022 10 16.09344 0 0
9:52 pm 21:52 Partly Cloudy 77 25 66 19 69 69 SE 15 24 30.21 1023 10 16.09344 0 0
10:52 pm 22:52 Partly Cloudy 73 23 64 18 74 74 SE 10 17 30.21 1023 10 16.09344 0 0
11:52 pm 23:52 Mostly Cloudy 73 23 64 18 74 74 SE 3 6 30.21 1023 10 16.09344 0 0

Powered by AerisWeather